Location: Multiple Mirror Telescope
(31.6889°N, 110.8853°W)
Time: 04:43:54
(UTC-07:00)

ISS - Pass Details

Date: 21 April 2026
Orbit: 414 x 424 km, 51.6° (Epoch: 18 May)

Event Time Altitude Azimuth Distance (km) Brightness Sun altitude
Exits shadow 03:26:18 19° 30° (NNE) 1,077 -1.0 -28.0°
Drops below altitude 10° 03:27:23 10° 36° (NE) 1,497 -0.1 -27.8°
Sets 03:29:32 0° 41° (NE) 2,366 1.3 -27.5°
